Volver al catálogo

STARLINK-5510

ActivoComunicacionesVLEO
NORAD 55647·PAYLOAD·🇺🇸 United States

Lanzado Feb 17, 2023 desde Vandenberg Space Force Base

Loading…

Próximos Pases (próximas 24 horas)

TLE

ActualizadoSource: CelesTrak SupGP

Época: Sep 15, 2026, 02:55 UTC

1 55647C 23021V   26258.12201389 -.00050417  00000+0 -42256-2 0  2581
2 55647  70.0009  66.6875 0002973 268.1633 321.5943 14.98352813    15

Sigue STARLINK-5510 en tiempo real con AllMySat

Download on the App Store